Regional Weather Roundup
Issued by NWS

Home | Current Version | Previous Version | Graphics & Text | Print | Product List | Glossary On
Versions: 1 2 3 4 5 6 7 8 9 10 11 12 13 14 15 16 17 18 19 20 21 22 23 24 25 26 27 28 29 30 31 32 33 34 35 36 37 38 39 40 41 42 43 44 45 46 47 48 49 50
000
ASUS43 KFSD 290710
RWRSD

WEATHER ROUNDUP FOR SOUTH DAKOTA
NATIONAL WEATHER SERVICE SIOUX FALLS SD
200 AM CDT MON AUG 29 2016

NOTE: "FAIR" INDICATES FEW OR NO CLOUDS BELOW 12,000 FEET WITH NO
SIGNIFICANT WEATHER AND/OR OBSTRUCTIONS TO VISIBILITY.


SDZ001>005-009-010-012>017-290800-
NORTHWEST AND NORTH CENTRAL SOUTH DAKOTA

CITY           SKY/WX    TMP DP  RH WIND       PRES   REMARKS
BUFFALO          N/A     63  49  60 NE16      30.06S
FAITH            N/A     67  50  54 N8        30.06R
MOBRIDGE       CLEAR     68  60  75 NW6       29.98R
$$

SDZ012>016-024>037-041>051-057-063-072>074-290800-
SOUTHWEST AND SOUTH CENTRAL SOUTH DAKOTA

CITY           SKY/WX    TMP DP  RH WIND       PRES   REMARKS
RAPID CTY ARPT CLEAR     58  50  75 NW7       30.08R
PIERRE         CLEAR     76  59  55 SW17      30.00R
CUSTER         CLEAR     59  39  47 NW5       30.26R
ELLSWORTH AFB  CLEAR     62  51  68 N15       30.08
PHILIP         CLEAR     64  59  83 CALM      30.03S
PINE RIDGE     CLEAR     68  58  70 W7        30.11R
WINNER         FAIR      76  63  64 S14       30.06S
$$

SDZ004>011-016>023-039-040-290800-
NORTHEAST SOUTH DAKOTA

CITY           SKY/WX    TMP DP  RH WIND       PRES   REMARKS
ABERDEEN       CLEAR     72  67  84 S10       30.01R
WATERTOWN      CLEAR     73  70  90 S10       30.07R
BROOKINGS        N/A    N/A N/A N/A MISG        N/A
SISSETON         N/A     78  71  79 S12G22    29.99S
$$

SDZ017-020-022-023-036>040-048>070-290800-
SOUTHEAST SOUTH DAKOTA

CITY           SKY/WX    TMP DP  RH WIND       PRES   REMARKS
SIOUX FALLS    CLEAR     72  32  23 S9        30.11R
HURON          CLEAR     74  71  91 S8        30.04R
CHAMBERLAIN    CLEAR     75  65  70 S7        30.05S
MITCHELL       CLEAR     74  69  85 S8        30.06R
YANKTON        CLEAR     70  64  83 E6        30.08S
$$

ABBREVIATIONS USED IN REMARKS
   TC - TEMPERATURE IN CELSIUS
  WCI - WIND CHILL INDEX
   HX - HEAT INDEX
  VSB - VISIBILITY




USA.gov is the U.S. government's official web portal to all federal, state and local government web resources and services.